Tucson, AZ

10:27 PM MST on December 13, 2017 (GMT -0700)
Tucson International

Weather History for KTUS - August, 2014

Change the Weather History Date:

Wednesday, August 6, 2014

  Actual Average Record
Temperature  
Mean Temperature 89 °F 86 °F  
Max Temperature 102 °F 97 °F 109 °F (1995)
Min Temperature 75 °F 74 °F 63 °F (1928)
Degree Days  
Heating Degree Days 0 0  
Month to date heating degree days 0 0  
Since 1 June heating degree days 0 0  
Since 1 July heating degree days 0 0  
Cooling Degree Days 24 21  
Month to date cooling degree days 122 126  
Year to date cooling degree days 2180 1905  
Since 1 June cooling degree days 1577 1403  
Growing Degree Days 38 (Base 50)    
Moisture  
Dew Point 48 °F    
Average Humidity 31    
Maximum Humidity 50    
Minimum Humidity 12    
Precipitation  
Precipitation 0.00 in 0.08 in 1.88 in (1955)
Month to date precipitation 0.46 0.51  
Year to date precipitation 2.50 6.03  
Sea Level Pressure  
Sea Level Pressure 29.85 in    
Wind  
Wind Speed 6 mph (SW)    
Max Wind Speed 15 mph    
Max Gust Speed 19 mph    
Visibility 10 miles    
Events      
T = Trace of Precipitation, MM = Missing Value Source: NWS Daily Summary

Daily Weather History Graph

Daily Weather History Graph

Search for Another Location

Airport or City:

Trip Planner

Search our weather history database for the weather conditions in past years. The results will help you decide how hot, cold, wet, or windy it might be!

Date:

Astronomy

Aug. 06, 2014 Rise Set
Actual Time 5:42 AM MST 7:16 PM MST
Civil Twilight 5:15 AM MST 7:42 PM MST
Nautical Twilight 4:44 AM MST 8:14 PM MST
Astronomical Twilight 4:11 AM MST 8:47 PM MST
Moon 3:34 PM MST (8/6) 1:22 AM MST (8/6)
Length of Visible Light 14h 26m
Length of Day
13h 34m
Waxing Gibbous, 78% of the Moon is Illuminated
Aug 6
Waxing Gibbous
Aug 10
Full
Aug 17
Last Quarter
Aug 25
New
Sep 2
First Quarter

Hourly Weather History & Observations

Time (MST) Temp. Heat Index Dew Point Humidity Pressure Visibility Wind Dir Wind Speed Gust Speed Precip Events Conditions
12:53 AM 84.0 °F 82.6 °F 54.0 °F 35% 29.87 in 10.0 mi West 6.9 mph - N/A   Clear
1:53 AM 81.0 °F 80.7 °F 55.0 °F 41% 29.87 in 10.0 mi Variable 3.5 mph - N/A   Clear
2:53 AM 78.1 °F - 52.0 °F 40% 29.88 in 10.0 mi SE 5.8 mph - N/A   Clear
3:53 AM 78.1 °F - 55.0 °F 45% 29.88 in 10.0 mi SSE 5.8 mph - N/A   Clear
4:53 AM 77.0 °F - 57.0 °F 50% 29.88 in 10.0 mi SSE 4.6 mph - N/A   Clear
5:53 AM 75.0 °F - 55.9 °F 51% 29.89 in 10.0 mi SSE 5.8 mph - N/A   Clear
6:53 AM 77.0 °F - 57.0 °F 50% 29.91 in 10.0 mi SSE 5.8 mph - N/A   Clear
7:53 AM 81.0 °F 81.0 °F 57.0 °F 44% 29.92 in 10.0 mi SSE 3.5 mph - N/A   Clear
8:53 AM 86.0 °F 84.7 °F 55.9 °F 36% 29.91 in 10.0 mi Calm Calm - N/A   Clear
10:53 AM 93.0 °F - 51.1 °F 24% 29.89 in 10.0 mi SSE 3.5 mph - N/A   Clear
11:53 AM 96.8 °F - 46.4 °F 18% 30.04 in 10.0 mi Calm Calm - N/A   Clear
12:53 PM 98.1 °F - 44.1 °F 16% 29.86 in 10.0 mi West 5.8 mph - N/A   Clear
1:53 PM 99.0 °F - 44.1 °F 15% 29.83 in 10.0 mi NNW 5.8 mph - N/A   Clear
2:53 PM 100.0 °F - 43.0 °F 14% 29.81 in 10.0 mi SW 6.9 mph - N/A   Clear
3:53 PM 100.9 °F - 42.1 °F 13% 29.78 in 10.0 mi WNW 10.4 mph - N/A   Clear
4:53 PM 100.9 °F - 42.1 °F 13% 29.76 in 10.0 mi NW 10.4 mph 18.4 mph N/A   Partly Cloudy
5:53 PM 100.9 °F - 42.1 °F 13% 29.75 in 10.0 mi North 8.1 mph - N/A   Clear
6:53 PM 98.1 °F - 42.1 °F 15% 29.76 in 10.0 mi NW 5.8 mph - N/A   Clear
7:53 PM 96.1 °F - 43.0 °F 16% 29.78 in 10.0 mi NW 6.9 mph - N/A   Clear
8:53 PM 93.9 °F - 33.1 °F 12% 29.80 in 10.0 mi WNW 9.2 mph - N/A   Clear
9:53 PM 89.1 °F - 37.9 °F 16% 29.82 in 10.0 mi West 6.9 mph - N/A   Clear
10:53 PM 86.0 °F - 41.0 °F 20% 29.85 in 10.0 mi SSW 5.8 mph - N/A   Clear
11:53 PM 84.9 °F - 42.1 °F 22% 29.85 in 10.0 mi South 9.2 mph - N/A   Clear